[[{"header":{"parameterUnit":"m.s-1","parameterCategory":1,"la1":30.2991,"la2":30.254,"lo1":-89.0895,"lo2":-89.0444,"dy":0.0017,"dx":0.0017,"nx":28,"ny":28,"refTime":"2024-03-29T03:00:00:Z","depth":0,"parameterNumber":2,"parameterNumberName":"U-component_of_WINDS"},"data":[0,0,0,0,0,0,0,0,0,0,0,0,0,0,0,0,0,0,0,0,0,0,0,0,0,0,0,0,0,0,0,0,0,0,0,0,0,0,0,0,0,0,0,0,0,0,0,0,0,0,0,0,0,0,0,0,0,0,-3.0793,-3.0793,0,-3.0795,-3.0795,-3.0795,-3.0654,-3.065,-3.0646,-3.0642,-3.0648,-3.0651,-3.0655,0,0,0,0,0,0,0,0,0,0,0,0,0,-3.0668,-3.0671,-3.0793,-3.0793,-3.0793,-3.0795,-3.0795,-3.0795,-3.0654,-3.065,-3.0645,-3.0641,-3.0647,-3.0651,-3.0655,0,0,0,0,0,0,0,0,0,0,0,0,0,-3.0702,-3.0672,-3.0793,-3.0723,-3.0716,-3.0795,-3.0795,-3.0795,-3.0655,-3.0649,-3.0644,-3.0639,-3.0645,-3.065,-3.0656,-3.0802,0,0,-3.0672,-3.0675,0,0,0,0,0,0,0,0,-3.07,-3.0707,-3.0733,-3.0728,-3.0721,-3.0718,-3.0753,-3.0798,-3.0657,-3.0679,-3.0642,-3.0636,-3.0676,-3.0678,-3.0691,-3.0802,-3.0803,-3.0673,-3.0676,-3.0679,-3.068,0,0,0,0,0,0,0,-3.0698,-3.0706,-3.0794,-3.0734,-3.0726,-3.0692,-3.069,-3.0761,-3.0709,-3.0676,-3.0666,-3.0668,-3.0671,-3.0686,-3.069,-3.0803,-3.0673,-3.0678,-3.0681,-3.0683,-3.1033,-3.1039,0,0,0,0,0,0,-3.0705,-3.0705,-3.0793,-3.0794,-3.0696,-3.0699,-3.0697,-3.0725,-3.0708,-3.07,-3.0673,-3.0661,-3.068,-3.0684,-3.069,-3.086,-3.0679,-3.0684,-3.0687,-3.1027,-3.1034,-3.1041,0,0,0,0,0,0,-3.0703,-3.0714,-3.0793,-3.0746,-3.0754,-3.0707,-3.0739,-3.0728,-3.0742,-3.0705,-3.0695,-3.0697,-3.0676,-3.0682,-3.0775,-3.0858,-3.0686,-3.0691,-3.102,-3.1029,-3.1038,-3.1202,0,0,0,0,0,0,-3.07,-3.0714,-3.0769,-3.0749,-3.0757,-3.0879,-3.0744,-3.0732,-3.0752,-3.0737,-3.0726,-3.0718,-3.0672,-3.0768,-3.078,-3.0863,-3.0695,-3.1012,-3.1024,-3.1035,-3.1189,-3.1215,-3.1238,0,0,0,0,0,-3.0696,-3.0816,-3.0773,-3.0784,-3.0824,-3.0884,-3.0888,-3.0831,-3.0759,-3.0814,-3.079,-3.0719,-3.0847,-3.0778,-3.0791,-3.0877,-3.1007,-3.1021,-3.1034,-3.1178,-3.121,-3.1237,0,0,0,0,0,0,-3.085,-3.0812,-3.0764,-3.0881,-3.0886,-3.0859,-3.0927,-3.0867,-3.0894,-3.088,-3.0808,-3.0807,-3.0911,-3.0903,-3.0827,-3.1017,-3.0914,-3.0931,-3.1019,-3.1049,-3.1074,-3.1074,-3.07,0,0,0,0,0,-3.0897,-3.0947,-3.0912,-3.1019,-3.1024,-3.0976,-3.0999,-3.0954,-3.0957,-3.0959,-3.0942,-3.0949,-3.099,-3.1019,-3.1055,-3.1186,-3.1182,-3.1251,-3.1276,-3.1296,-3.1312,-3.1381,-3.1411,-3.1085,-3.1085,-3.1085,0,0,-3.0996,-3.0981,-3.1018,-3.1049,-3.1048,-3.1102,-3.0978,-3.1041,-3.1081,-3.0969,-3.1055,-3.1043,-3.1045,-3.1158,-3.1206,-3.1154,-3.1401,-3.1314,-3.133,-3.1335,-3.1398,-3.1429,-3.1456,-3.1095,-3.1093,-3.1091,0,0,-3.1203,-3.1197,-3.1285,-3.1286,-3.1285,-3.1252,-3.1273,-3.1255,-3.1242,-3.1327,-3.1244,-3.1291,-3.1364,-3.1368,-3.1381,-3.1589,-3.1524,-3.1602,-3.1732,-3.1799,-3.1825,-3.1847,-3.1922,-3.195,-3.1618,-3.1618,-3.1619,0,-3.1326,-3.1404,-3.1338,-3.1406,-3.1423,-3.1322,-3.1411,-3.1415,-3.1427,-3.1441,-3.1382,-3.147,-3.1465,-3.1577,-3.1628,-3.1641,-3.1663,-3.1604,-3.1826,-3.1848,-3.1868,-3.1939,-3.1967,-3.1628,-3.1627,-3.1626,-3.1625,0,-3.1555,-3.1611,-3.1682,-3.1694,-3.1718,-3.1797,-3.1743,-3.1776,-3.1729,-3.1702,-3.1789,-3.1779,-3.1811,-3.1834,-3.1789,-3.194,-3.1907,-3.1839,-3.1734,-3.191,-3.1975,-3.2001,-3.1641,-3.1638,-3.1635,-3.1633,0,0,-3.1862,-3.1835,-3.1863,-3.1867,-3.1858,-3.19,-3.1973,-3.2003,-3.2032,-3.2043,-3.2104,-3.2167,-3.2102,-3.2116,-3.2071,-3.213,-3.2296,-3.2054,-3.2053,-3.21,-3.2461,-3.2514,-3.2546,-3.2252,-3.2257,-3.2261,-3.2461,0,-3.2064,-3.2187,-3.2129,-3.2259,-3.2309,-3.2214,-3.2277,-3.2279,-3.2256,-3.2295,-3.2269,-3.2315,-3.2227,-3.2234,-3.2289,-3.2264,-3.2368,-3.2249,-3.2309,-3.2312,-3.2312,-3.258,-3.2636,-3.2826,-3.2486,-3.2491,-3.2494,0,-3.2316,-3.2336,-3.2471,-3.2452,-3.247,-3.2529,-3.2551,-3.259,-3.259,-3.2568,-3.2583,-3.2524,-3.2595,-3.249,-3.2587,-3.2507,-3.2528,-3.252,-3.2526,-3.253,-3.2414,-3.2593,-3.2885,-3.2914,-3.2533,-3.253,-3.2527,0,-3.2527,-3.2587,-3.2675,-3.2682,-3.2662,-3.2705,-3.2699,-3.2693,-3.2714,-3.2734,-3.2747,-3.2775,-3.2791,-3.2815,-3.2764,-3.2692,-3.2869,-3.2759,-3.2854,-3.2855,-3.2896,-3.2895,-3.3197,-3.2909,-3.2908,-3.2908,-3.2907,0,-3.2758,-3.2845,-3.277,-3.2825,-3.2918,-3.2851,-3.2946,-3.2929,-3.2925,-3.2975,-3.2893,-3.2942,-3.2872,-3.2914,-3.2876,-3.2962,-3.297,-3.2955,-3.2944,-3.2963,-3.2965,-3.2977,-3.2963,-3.2915,-3.2913,-3.2912,-3.2911,0,-3.3011,-3.2964,-3.3054,-3.3026,-3.3021,-3.3092,-3.3069,-3.3118,-3.3088,-3.3152,-3.3163,-3.3117,-3.3162,-3.3114,-3.3156,-3.3129,-3.3246,-3.3215,-3.3247,-3.3238,-3.3335,-3.3327,-3.3657,-3.3697,-3.3382,-3.3385,-3.3387,0,-3.3162,-3.3226,-3.3205,-3.3232,-3.323,-3.3275,-3.3296,-3.3232,-3.3257,-3.3261,-3.331,-3.3348,-3.3375,-3.3452,-3.3422,-3.3454,-3.3424,-3.3537,-3.3428,-3.3445,-3.3426,-3.3423,-3.343,-3.356,-3.3563,-3.3567,-3.3569,0,-3.3437,-3.341,-3.3442,-3.3467,-3.3494,-3.3511,-3.3521,-3.3548,-3.3481,-3.3514,-3.3558,-3.3579,-3.3621,-3.366,-3.3682,-3.3676,-3.3613,-3.3603,-3.3627,-3.3648,-3.3663,-3.3657,-3.3308,-3.3596,-3.3594,-3.3592,-3.359,-3.3589,-3.3644,-3.3696,-3.3689,-3.3728,-3.3728,-3.374,-3.3784,-3.3759,-3.3795,-3.3823,-3.3783,-3.3838,-3.3835,-3.3859,-3.386,-3.3903,-3.3855,-3.3889,-3.3898,-3.3908,-3.3922,-3.3655,-3.3907,-3.3906,-3.3905,-3.3904,-3.3904,0,-3.3914,-3.3904,-3.3941,-3.3957,-3.3988,-3.3922,-3.393,-3.3961,-3.401,-3.4012,-3.404,-3.4091,-3.4128,-3.41,-3.4131,-3.4171,-3.4142,-3.4181,-3.4178,-3.4178,-3.3963,-3.394,-3.4204,-3.4204,-3.4204,-3.4204,-3.4204,-3.4204,-3.4059,-3.4143,-3.4116,-3.42,-3.4189,-3.4242,-3.4252,-3.4262,-3.4263,-3.4323,-3.4353,-3.4334,-3.4325,-3.4354,-3.4385,-3.4376,-3.4392,-3.4442,-3.4423,-3.4223,-3.4193,-3.4165,-3.4143,-3.4445,-3.4446,-3.4634,-3.4636,-3.4637]},{"header":{"parameterUnit":"m.s-1","parameterCategory":1,"la1":30.2991,"la2":30.254,"lo1":-89.0895,"lo2":-89.0444,"dy":0.0017,"dx":0.0017,"nx":28,"ny":28,"refTime":"2024-03-29T03:00:00:Z","depth":0,"parameterNumber":3,"parameterNumberName":"V-component_of_WINDS"},"data":[0,0,0,0,0,0,0,0,0,0,0,0,0,0,0,0,0,0,0,0,0,0,0,0,0,0,0,0,0,0,0,0,0,0,0,0,0,0,0,0,0,0,0,0,0,0,0,0,0,0,0,0,0,0,0,0,0,0,-1.936,-1.9361,0,-1.9422,-1.9422,-1.9423,-1.9435,-1.9435,-1.9434,-1.9434,-1.9492,-1.9494,-1.9496,0,0,0,0,0,0,0,0,0,0,0,0,0,-1.9249,-1.9251,-1.936,-1.9361,-1.9362,-1.9422,-1.9422,-1.9423,-1.9435,-1.9435,-1.9434,-1.9433,-1.9491,-1.9494,-1.9496,0,0,0,0,0,0,0,0,0,0,0,0,0,-1.9302,-1.9252,-1.936,-1.9375,-1.9377,-1.9421,-1.9422,-1.9423,-1.9435,-1.9435,-1.9434,-1.9433,-1.9491,-1.9494,-1.9497,-1.9529,0,0,-1.9506,-1.9507,0,0,0,0,0,0,0,0,-1.9299,-1.9306,-1.9372,-1.9374,-1.9376,-1.942,-1.9405,-1.9459,-1.9435,-1.9413,-1.9434,-1.9433,-1.9468,-1.9473,-1.9486,-1.9532,-1.9534,-1.9506,-1.9508,-1.9509,-1.951,0,0,0,0,0,0,0,-1.9296,-1.9304,-1.9384,-1.9373,-1.9376,-1.9377,-1.9384,-1.9415,-1.9444,-1.9415,-1.9416,-1.9423,-1.9469,-1.9483,-1.9488,-1.9535,-1.9506,-1.9509,-1.951,-1.9512,-1.9609,-1.961,0,0,0,0,0,0,-1.929,-1.9301,-1.9383,-1.9386,-1.9335,-1.938,-1.9387,-1.9407,-1.9444,-1.9449,-1.9424,-1.9424,-1.9478,-1.9484,-1.949,-1.9529,-1.9509,-1.9512,-1.9514,-1.9608,-1.9609,-1.961,0,0,0,0,0,0,-1.9287,-1.9297,-1.938,-1.9344,-1.9355,-1.9382,-1.9404,-1.9408,-1.9422,-1.945,-1.9455,-1.9433,-1.9478,-1.9485,-1.9519,-1.9532,-1.9513,-1.9516,-1.9607,-1.9609,-1.961,-1.9609,0,0,0,0,0,0,-1.9284,-1.9296,-1.931,-1.9344,-1.9356,-1.941,-1.9405,-1.941,-1.9428,-1.9428,-1.946,-1.9465,-1.9478,-1.9515,-1.9522,-1.9535,-1.9518,-1.9606,-1.9608,-1.9609,-1.9608,-1.961,-1.9612,0,0,0,0,0,-1.928,-1.9307,-1.9311,-1.932,-1.9375,-1.9411,-1.9418,-1.9434,-1.9429,-1.9442,-1.946,-1.9464,-1.9529,-1.9518,-1.9527,-1.9541,-1.9606,-1.9608,-1.9609,-1.9607,-1.961,-1.9612,0,0,0,0,0,0,-1.9272,-1.9311,-1.9316,-1.9355,-1.938,-1.9413,-1.943,-1.9436,-1.9461,-1.9461,-1.9478,-1.9485,-1.9518,-1.9533,-1.952,-1.9573,-1.9567,-1.957,-1.9563,-1.9565,-1.9567,-1.9562,-1.9521,0,0,0,0,0,-1.9275,-1.9302,-1.9335,-1.9366,-1.9378,-1.9402,-1.9418,-1.9429,-1.9454,-1.9464,-1.9485,-1.9508,-1.9534,-1.955,-1.9576,-1.9611,-1.9617,-1.9625,-1.9626,-1.9628,-1.963,-1.9649,-1.9652,-1.9616,-1.9616,-1.9616,0,0,-1.928,-1.9306,-1.9322,-1.9365,-1.9385,-1.9411,-1.941,-1.9439,-1.9458,-1.9468,-1.9501,-1.9517,-1.9544,-1.9578,-1.9595,-1.9592,-1.9642,-1.963,-1.9631,-1.9633,-1.9651,-1.9654,-1.9657,-1.9617,-1.9617,-1.9617,0,0,-1.9304,-1.9327,-1.9355,-1.9375,-1.9406,-1.9422,-1.9429,-1.9461,-1.9472,-1.9506,-1.9514,-1.9536,-1.9581,-1.96,-1.9615,-1.9646,-1.9649,-1.9653,-1.9663,-1.968,-1.9683,-1.9686,-1.9696,-1.9699,-1.9656,-1.9656,-1.9656,0,-1.9307,-1.9349,-1.9368,-1.9396,-1.9414,-1.9426,-1.9453,-1.9471,-1.9508,-1.952,-1.9517,-1.9572,-1.9591,-1.963,-1.9637,-1.965,-1.9656,-1.9649,-1.9682,-1.9684,-1.9687,-1.9696,-1.97,-1.9656,-1.9656,-1.9656,-1.9656,0,-1.9351,-1.9379,-1.9398,-1.9435,-1.9455,-1.9482,-1.9503,-1.9521,-1.953,-1.9545,-1.9579,-1.9602,-1.9632,-1.9642,-1.965,-1.9681,-1.9678,-1.9678,-1.9672,-1.969,-1.9699,-1.9703,-1.9656,-1.9656,-1.9656,-1.9656,0,0,-1.9371,-1.9418,-1.9424,-1.9441,-1.9476,-1.9498,-1.9525,-1.9555,-1.957,-1.9595,-1.9617,-1.9654,-1.9654,-1.9672,-1.9682,-1.9697,-1.9719,-1.9695,-1.9696,-1.9698,-1.9753,-1.9752,-1.9756,-1.9722,-1.9723,-1.9723,-1.975,0,-1.9398,-1.9449,-1.9466,-1.9508,-1.9534,-1.9545,-1.9568,-1.9591,-1.9606,-1.9629,-1.9645,-1.9671,-1.9669,-1.968,-1.9696,-1.9713,-1.973,-1.9711,-1.9741,-1.9742,-1.9733,-1.9761,-1.9761,-1.9785,-1.9754,-1.9755,-1.9755,0,-1.9437,-1.9464,-1.9509,-1.954,-1.9551,-1.9572,-1.9601,-1.9624,-1.9649,-1.9659,-1.9678,-1.9687,-1.9714,-1.9707,-1.9744,-1.9731,-1.9744,-1.9754,-1.9755,-1.9758,-1.9749,-1.9763,-1.9793,-1.9796,-1.9761,-1.9761,-1.976,0,-1.9447,-1.9494,-1.9526,-1.954,-1.9577,-1.9592,-1.9608,-1.9633,-1.965,-1.9675,-1.9685,-1.9712,-1.9727,-1.9747,-1.9762,-1.9756,-1.9797,-1.9792,-1.9805,-1.9804,-1.9813,-1.9812,-1.9844,-1.9822,-1.9822,-1.9822,-1.9822,0,-1.9475,-1.9501,-1.9531,-1.9551,-1.958,-1.9599,-1.9626,-1.9643,-1.9665,-1.9687,-1.9698,-1.9718,-1.9738,-1.976,-1.9772,-1.98,-1.9806,-1.9814,-1.9816,-1.9812,-1.9811,-1.9821,-1.9819,-1.9823,-1.9823,-1.9823,-1.9823,0,-1.949,-1.9511,-1.9547,-1.958,-1.9588,-1.9608,-1.9635,-1.9654,-1.967,-1.9697,-1.9704,-1.9728,-1.9755,-1.9772,-1.9806,-1.9814,-1.9844,-1.9847,-1.9836,-1.9837,-1.9849,-1.9847,-1.9888,-1.9893,-1.9869,-1.9869,-1.9869,0,-1.9507,-1.9527,-1.9562,-1.9579,-1.9595,-1.9621,-1.9638,-1.9657,-1.9674,-1.9705,-1.972,-1.9747,-1.977,-1.9812,-1.9831,-1.9857,-1.9859,-1.9872,-1.9863,-1.9858,-1.9858,-1.9857,-1.9858,-1.9873,-1.9873,-1.9873,-1.9873,0,-1.9533,-1.9542,-1.9568,-1.9597,-1.9618,-1.9642,-1.9665,-1.9677,-1.97,-1.9719,-1.9747,-1.9765,-1.9799,-1.9826,-1.9853,-1.9868,-1.9874,-1.9876,-1.988,-1.9876,-1.9868,-1.9871,-1.9839,-1.9875,-1.9875,-1.9874,-1.9874,-1.9874,-1.9549,-1.9567,-1.9595,-1.9623,-1.9643,-1.9664,-1.9683,-1.9701,-1.9726,-1.9756,-1.9765,-1.9794,-1.9818,-1.9855,-1.9871,-1.9892,-1.9891,-1.9897,-1.9899,-1.99,-1.9899,-1.9865,-1.9897,-1.9897,-1.9897,-1.9897,-1.9897,0,-1.9575,-1.9594,-1.9619,-1.9652,-1.9674,-1.9679,-1.9705,-1.9722,-1.9748,-1.977,-1.9793,-1.9824,-1.985,-1.9871,-1.9898,-1.9911,-1.9914,-1.9917,-1.9916,-1.9919,-1.9899,-1.9893,-1.9914,-1.9914,-1.9914,-1.9914,-1.9914,-1.9914,-1.9591,-1.9623,-1.9635,-1.9676,-1.9694,-1.9723,-1.9737,-1.9756,-1.9775,-1.981,-1.9832,-1.9846,-1.9867,-1.9895,-1.9919,-1.9924,-1.9933,-1.9935,-1.9941,-1.9922,-1.992,-1.9918,-1.9912,-1.9937,-1.9937,-1.9958,-1.9958,-1.9958]}]]